| time (UTC) | temp F | wind direction | speed MPH | gust MPH | rain 1hr in | rain 24hr in | rain mn in | humidity % | barometer mb |
| 20260507014605 | 58 | 0 | 1.0 | 4.0 | 0.00 | 0.13 | 0.13 | 97 | 1007.0 |
| 20260507013102 | 58 | 15 | 0.0 | 3.0 | 0.00 | 0.13 | 0.13 | 97 | 1007.0 |
| 20260507011557 | 58 | 50 | 0.0 | 4.0 | 0.00 | 0.13 | 0.13 | 97 | 1007.2 |
| 20260507010059 | 58 | 302 | 1.0 | 6.0 | 0.00 | 0.13 | 0.13 | 97 | 1007.2 |
| 20260507004552 | 58 | 348 | 1.0 | 7.0 | 0.00 | 0.13 | 0.13 | 97 | 1007.1 |
| 20260507003104 | 58 | 5 | 1.0 | 8.0 | 0.00 | 0.13 | 0.13 | 97 | 1007.2 |
| 20260507001602 | 58 | 49 | 1.0 | 4.0 | 0.01 | 0.13 | 0.13 | 97 | 1007.0 |
| 20260507000053 | 58 | 40 | 2.0 | 6.0 | 0.02 | 0.13 | 0.13 | 97 | 1007.1 |
| 20260506234604 | 58 | 0 | 2.0 | 7.0 | 0.05 | 0.13 | 0.13 | 97 | 1007.1 |
| 20260506233058 | 58 | 11 | 1.0 | 7.0 | 0.05 | 0.13 | 0.13 | 96 | 1007.0 |
| 20260506231557 | 58 | 24 | 1.0 | 5.0 | 0.04 | 0.12 | 0.12 | 96 | 1007.0 |
| 20260506230059 | 58 | 16 | 2.0 | 9.0 | 0.04 | 0.11 | 0.11 | 96 | 1007.0 |
| 20260506224559 | 58 | 12 | 1.0 | 6.0 | 0.01 | 0.08 | 0.08 | 96 | 1007.2 |
| 20260506223051 | 58 | 69 | 2.0 | 4.0 | 0.01 | 0.08 | 0.08 | 96 | 1007.2 |
| 20260506221553 | 59 | 49 | 1.0 | 5.0 | 0.01 | 0.08 | 0.08 | 95 | 1007.2 |
| 20260506220054 | 59 | 336 | 1.0 | 9.0 | 0.00 | 0.07 | 0.07 | 95 | 1007.3 |
| 20260506214551 | 59 | 19 | 1.0 | 8.0 | 0.01 | 0.07 | 0.07 | 95 | 1007.5 |
| 20260506213051 | 59 | 0 | 1.0 | 9.0 | 0.01 | 0.07 | 0.07 | 95 | 1007.6 |
| 20260506211554 | 59 | 323 | 2.0 | 10.0 | 0.02 | 0.07 | 0.07 | 94 | 1007.7 |
| 20260506210055 | 59 | 22 | 2.0 | 10.0 | 0.03 | 0.07 | 0.07 | 94 | 1007.9 |
| 20260506204553 | 59 | 89 | 2.0 | 7.0 | 0.02 | 0.06 | 0.06 | 94 | 1008.0 |
| 20260506203052 | 59 | 21 | 1.0 | 10.0 | 0.02 | 0.06 | 0.06 | 94 | 1008.0 |
| 20260506201556 | 59 | 51 | 2.0 | 9.0 | 0.03 | 0.05 | 0.05 | 93 | 1008.0 |
| 20260506200051 | 60 | 41 | 4.0 | 11.0 | 0.03 | 0.04 | 0.04 | 91 | 1007.9 |
| 20260506194552 | 61 | 328 | 2.0 | 6.0 | 0.04 | 0.04 | 0.04 | 92 | 1007.9 |
| 20260506193054 | 61 | 29 | 2.0 | 9.0 | 0.04 | 0.04 | 0.04 | 90 | 1008.2 |
| 20260506191552 | 62 | 0 | 1.0 | 3.0 | 0.02 | 0.02 | 0.02 | 89 | 1008.1 |
| 20260506190058 | 63 | 70 | 1.0 | 6.0 | 0.01 | 0.01 | 0.01 | 86 | 1008.0 |
| 20260506184554 | 64 | 0 | 1.0 | 4.0 | 0.00 | 0.00 | 0.00 | 82 | 1008.3 |
| 20260506183100 | 66 | 306 | 2.0 | 8.0 | 0.00 | 0.00 | 0.00 | 76 | 1008.5 |
| 20260506181555 | 67 | 332 | 3.0 | 14.0 | 0.00 | 0.00 | 0.00 | 73 | 1008.6 |
| 20260506180051 | 70 | 194 | 1.0 | 9.0 | 0.00 | 0.00 | 0.00 | 65 | 1008.5 |
| 20260506174555 | 71 | 119 | 2.0 | 9.0 | 0.00 | 0.00 | 0.00 | 61 | 1008.7 |
| 20260506173123 | 71 | 24 | 4.0 | 13.0 | 0.00 | 0.00 | 0.00 | 60 | 1008.6 |
| 20260506171602 | 72 | 34 | 2.0 | 7.0 | 0.00 | 0.00 | 0.00 | 59 | 1008.7 |
| 20260506170055 | 72 | 82 | 4.0 | 14.0 | 0.00 | 0.00 | 0.00 | 59 | 1009.0 |
| 20260506164556 | 71 | 360 | 3.0 | 14.0 | 0.00 | 0.00 | 0.00 | 61 | 1008.8 |
| 20260506163106 | 70 | 350 | 1.0 | 17.0 | 0.00 | 0.00 | 0.00 | 64 | 1009.1 |
| 20260506161622 | 70 | 9 | 3.0 | 17.0 | 0.00 | 0.00 | 0.00 | 64 | 1009.2 |
| 20260506160058 | 70 | 290 | 4.0 | 9.0 | 0.00 | 0.00 | 0.00 | 64 | 1009.6 |
| 20260506154600 | 69 | 103 | 2.0 | 11.0 | 0.00 | 0.00 | 0.00 | 66 | 1009.9 |
| 20260506153059 | 69 | 301 | 2.0 | 13.0 | 0.00 | 0.00 | 0.00 | 66 | 1009.9 |
| 20260506151555 | 69 | 281 | 1.0 | 12.0 | 0.00 | 0.00 | 0.00 | 67 | 1010.2 |
| 20260506150052 | 69 | 337 | 3.0 | 10.0 | 0.00 | 0.00 | 0.00 | 68 | 1010.3 |
| 20260506144552 | 68 | 82 | 3.0 | 13.0 | 0.00 | 0.00 | 0.00 | 70 | 1010.5 |
| 20260506143054 | 67 | 352 | 4.0 | 15.0 | 0.00 | 0.00 | 0.00 | 71 | 1010.4 |
| 20260506141556 | 67 | 44 | 5.0 | 11.0 | 0.00 | 0.00 | 0.00 | 71 | 1010.3 |
| 20260506140052 | 67 | 11 | 3.0 | 13.0 | 0.00 | 0.00 | 0.00 | 72 | 1010.1 |
| 20260506134552 | 67 | 63 | 2.0 | 13.0 | 0.00 | 0.00 | 0.00 | 73 | 1010.5 |
| 20260506133053 | 65 | 21 | 4.0 | 12.0 | 0.00 | 0.00 | 0.00 | 75 | 1010.6 |
| 20260506131601 | 65 | 50 | 3.0 | 12.0 | 0.00 | 0.00 | 0.00 | 76 | 1010.9 |
| 20260506124557 | 64 | 39 | 4.0 | 13.0 | 0.00 | 0.00 | 0.00 | 76 | 1010.9 |
| 20260506123054 | 64 | 13 | 2.0 | 11.0 | 0.00 | 0.00 | 0.00 | 77 | 1010.7 |
| 20260506121554 | 62 | 56 | 2.0 | 10.0 | 0.00 | 0.00 | 0.00 | 80 | 1011.0 |
| 20260506120056 | 62 | 360 | 2.0 | 11.0 | 0.00 | 0.00 | 0.00 | 80 | 1010.8 |
| 20260506114550 | 60 | 5 | 2.0 | 8.0 | 0.00 | 0.00 | 0.00 | 83 | 1011.0 |
| 20260506113056 | 60 | 19 | 4.0 | 10.0 | 0.00 | 0.00 | 0.00 | 83 | 1011.2 |
| 20260506111552 | 60 | 53 | 1.0 | 11.0 | 0.00 | 0.00 | 0.00 | 83 | 1011.6 |
| 20260506110100 | 59 | 43 | 2.0 | 8.0 | 0.00 | 0.00 | 0.00 | 84 | 1011.2 |
| 20260506104556 | 58 | 44 | 2.0 | 8.0 | 0.00 | 0.00 | 0.00 | 85 | 1011.3 |
| 20260506103056 | 58 | 60 | 3.0 | 11.0 | 0.00 | 0.00 | 0.00 | 86 | 1011.2 |
| 20260506101600 | 58 | 51 | 1.0 | 6.0 | 0.00 | 0.00 | 0.00 | 85 | 1011.3 |
| 20260506100114 | 58 | 360 | 2.0 | 5.0 | 0.00 | 0.00 | 0.00 | 85 | 1011.2 |
| 20260506094610 | 58 | 5 | 2.0 | 7.0 | 0.00 | 0.00 | 0.00 | 85 | 1011.2 |
| 20260506093100 | 58 | 53 | 2.0 | 6.0 | 0.00 | 0.00 | 0.00 | 84 | 1011.0 |
| 20260506091559 | 58 | 352 | 2.0 | 6.0 | 0.00 | 0.00 | 0.00 | 83 | 1011.2 |
| 20260506090056 | 58 | 5 | 2.0 | 4.0 | 0.00 | 0.00 | 0.00 | 83 | 1011.2 |
| 20260506084621 | 58 | 83 | 1.0 | 5.0 | 0.00 | 0.00 | 0.00 | 82 | 1011.3 |
| 20260506083056 | 59 | 360 | 2.0 | 8.0 | 0.00 | 0.00 | 0.00 | 81 | 1011.4 |
| 20260506081557 | 59 | 30 | 2.0 | 8.0 | 0.00 | 0.00 | 0.00 | 80 | 1011.3 |
| 20260506073056 | 60 | 350 | 2.0 | 8.0 | 0.00 | 0.00 | 0.00 | 78 | 1011.0 |
| 20260506071559 | 61 | 66 | 3.0 | 9.0 | 0.00 | 0.00 | 0.00 | 77 | 1010.9 |
| 20260506070156 | 61 | 349 | 2.0 | 10.0 | 0.00 | 0.00 | 0.00 | 76 | 1010.7 |
| 20260506061554 | 62 | 30 | 2.0 | 8.0 | 0.00 | 0.00 | 0.00 | 73 | 1010.7 |
| 20260506044702 | 61 | 0 | 1.0 | 8.0 | 0.00 | 0.00 | 0.00 | 71 | 1011.0 |
| 20260506043108 | 61 | 0 | 0.0 | 6.0 | 0.00 | 0.00 | 0.00 | 71 | 1011.1 |
| 20260506041602 | 61 | 21 | 1.0 | 5.0 | 0.00 | 0.00 | 0.00 | 71 | 1011.1 |
| 20260506040053 | 61 | 24 | 1.0 | 7.0 | 0.00 | 0.00 | 0.00 | 71 | 1011.1 |
| 20260506034626 | 61 | 43 | 0.0 | 5.0 | 0.00 | 0.00 | 0.00 | 70 | 1011.1 |
| 20260506033104 | 62 | 5 | 2.0 | 6.0 | 0.00 | 0.00 | 0.00 | 69 | 1011.1 |
| 20260506031606 | 62 | 145 | 1.0 | 6.0 | 0.00 | 0.00 | 0.00 | 68 | 1011.0 |
| 20260506030056 | 62 | 0 | 1.0 | 9.0 | 0.00 | 0.00 | 0.00 | 67 | 1011.1 |
| 20260506024552 | 63 | 338 | 1.0 | 8.0 | 0.00 | 0.00 | 0.00 | 66 | 1010.9 |
| 20260506023108 | 63 | 132 | 1.0 | 6.0 | 0.00 | 0.00 | 0.00 | 65 | 1011.0 |
| 20260506021552 | 64 | 15 | 2.0 | 8.0 | 0.00 | 0.00 | 0.00 | 65 | 1011.0 |